EN

Hourly Weather Baruipur

Today, 27 January, Wednesday

Time Temperature Precipitation Wind Pressure Humidity
00:00 +20°C° 0 mm 1 mps 760 mmHg 47%
01:00 +18°C° 0 mm 2 mps 760 mmHg 48%
02:00 +18°C° 0 mm 2 mps 760 mmHg 48%
03:00 +17°C° 0 mm 3 mps 759 mmHg 48%
04:00 +16°C° 0 mm 3 mps 760 mmHg 46%
05:00 +16°C° 0 mm 2 mps 760 mmHg 44%
06:00 +15°C° 0 mm 2 mps 760 mmHg 45%
07:00 +17°C° 0 mm 3 mps 761 mmHg 40%
08:00 +19°C° 0 mm 3 mps 761 mmHg 35%
09:00 +21°C° 0 mm 3 mps 762 mmHg 31%
10:00 +24°C° 0 mm 3 mps 762 mmHg 28%
11:00 +26°C° 0 mm 3 mps 762 mmHg 25%
12:00 +28°C° 0 mm 3 mps 762 mmHg 23%
13:00 +28°C° 0 mm 4 mps 761 mmHg 23%
14:00 +29°C° 0 mm 4 mps 760 mmHg 23%
15:00 +30°C° 0 mm 4 mps 760 mmHg 23%
16:00 +28°C° 0 mm 3 mps 760 mmHg 26%
17:00 +26°C° 0 mm 3 mps 759 mmHg 29%
18:00 +25°C° 0 mm 3 mps 759 mmHg 31%
19:00 +22°C° 0 mm 3 mps 760 mmHg 33%
20:00 +21°C° 0 mm 3 mps 761 mmHg 35%
21:00 +20°C° 0 mm 3 mps 761 mmHg 36%
22:00 +19°C° 0 mm 3 mps 761 mmHg 37%
23:00 +19°C° 0 mm 2 mps 761 mmHg 37%

Tomorrow, 28 January, Thursday

Time Temperature Precipitation Wind Pressure Humidity
00:00 +18°C° 0 mm 2 mps 761 mmHg 37%
01:00 +18°C° 0 mm 2 mps 761 mmHg 37%
02:00 +17°C° 0 mm 2 mps 761 mmHg 37%
03:00 +16°C° 0 mm 2 mps 760 mmHg 37%
04:00 +16°C° 0 mm 2 mps 760 mmHg 36%
05:00 +15°C° 0 mm 2 mps 760 mmHg 34%
06:00 +14°C° 0 mm 3 mps 760 mmHg 33%
07:00 +17°C° 0 mm 3 mps 761 mmHg 30%
08:00 +19°C° 0 mm 3 mps 762 mmHg 28%
09:00 +21°C° 0 mm 3 mps 762 mmHg 25%
10:00 +23°C° 0 mm 4 mps 762 mmHg 23%
11:00 +26°C° 0 mm 4 mps 762 mmHg 21%
12:00 +29°C° 0 mm 4 mps 762 mmHg 19%
13:00 +29°C° 0 mm 4 mps 761 mmHg 18%
14:00 +30°C° 0 mm 4 mps 760 mmHg 17%
15:00 +32°C° 0 mm 4 mps 759 mmHg 17%
16:00 +29°C° 0 mm 4 mps 759 mmHg 19%
17:00 +27°C° 0 mm 3 mps 759 mmHg 20%
18:00 +25°C° 0 mm 3 mps 760 mmHg 22%
19:00 +24°C° 0 mm 3 mps 760 mmHg 24%
20:00 +21°C° 0 mm 2 mps 760 mmHg 25%
21:00 +20°C° 0 mm 2 mps 761 mmHg 27%
22:00 +20°C° 0 mm 2 mps 761 mmHg 27%
23:00 +19°C° 0 mm 2 mps 760 mmHg 27%

Day after tomorrow, 29 January, Friday

Time Temperature Precipitation Wind Pressure Humidity
00:00 +19°C° 0 mm 2 mps 760 mmHg 26%
01:00 +18°C° 0 mm 2 mps 760 mmHg 27%
02:00 +18°C° 0 mm 2 mps 760 mmHg 28%
03:00 +17°C° 0 mm 2 mps 759 mmHg 28%
04:00 +16°C° 0 mm 2 mps 760 mmHg 30%
05:00 +16°C° 0 mm 2 mps 760 mmHg 31%
06:00 +15°C° 0 mm 2 mps 760 mmHg 33%
07:00 +17°C° 0 mm 2 mps 761 mmHg 30%
08:00 +19°C° 0 mm 2 mps 761 mmHg 28%
09:00 +23°C° 0 mm 2 mps 762 mmHg 25%
10:00 +25°C° 0 mm 2 mps 761 mmHg 22%
11:00 +27°C° 0 mm 3 mps 761 mmHg 19%
12:00 +30°C° 0 mm 3 mps 761 mmHg 17%
13:00 +30°C° 0 mm 3 mps 760 mmHg 17%
14:00 +31°C° 0 mm 3 mps 759 mmHg 17%
15:00 +33°C° 0 mm 3 mps 758 mmHg 17%
16:00 +30°C° 0 mm 3 mps 758 mmHg 19%
17:00 +28°C° 0 mm 2 mps 758 mmHg 22%
18:00 +27°C° 0 mm 1 mps 758 mmHg 25%
19:00 +25°C° 0 mm 1 mps 759 mmHg 28%
20:00 +24°C° 0 mm 1 mps 759 mmHg 31%
21:00 +23°C° 0 mm 1 mps 760 mmHg 34%
22:00 +22°C° 0 mm 1 mps 760 mmHg 36%
23:00 +22°C° 0 mm 1 mps 759 mmHg 37%

30 January, Saturday

Time Temperature Precipitation Wind Pressure Humidity
00:00 +21°C° 0 mm 1 mps 759 mmHg 39%
01:00 +21°C° 0 mm 1 mps 759 mmHg 40%
02:00 +19°C° 0 mm 2 mps 759 mmHg 41%
03:00 +19°C° 0 mm 2 mps 759 mmHg 42%
04:00 +19°C° 0 mm 2 mps 759 mmHg 41%
05:00 +19°C° 0 mm 2 mps 759 mmHg 41%
06:00 +19°C° 0 mm 2 mps 759 mmHg 40%
07:00 +20°C° 0 mm 3 mps 760 mmHg 39%
08:00 +21°C° 0 mm 3 mps 760 mmHg 39%
09:00 +22°C° 0 mm 3 mps 761 mmHg 39%
10:00 +24°C° 0 mm 2 mps 761 mmHg 36%
11:00 +26°C° 0 mm 2 mps 760 mmHg 33%
12:00 +28°C° 0 mm 2 mps 760 mmHg 30%
13:00 +29°C° 0 mm 2 mps 759 mmHg 28%
14:00 +30°C° 0 mm 2 mps 759 mmHg 27%
15:00 +31°C° 0 mm 2 mps 758 mmHg 26%
16:00 +29°C° 0 mm 2 mps 758 mmHg 29%
17:00 +28°C° 0 mm 2 mps 758 mmHg 33%
18:00 +26°C° 0 mm 2 mps 758 mmHg 37%
19:00 +25°C° 0 mm 2 mps 759 mmHg 41%
20:00 +23°C° 0 mm 2 mps 759 mmHg 45%
21:00 +21°C° 0 mm 2 mps 760 mmHg 50%
22:00 +21°C° 0 mm 2 mps 760 mmHg 52%
23:00 +20°C° 0 mm 2 mps 760 mmHg 54%

31 January, Sunday

Time Temperature Precipitation Wind Pressure Humidity
00:00 +20°C° 0 mm 2 mps 760 mmHg 56%
01:00 +19°C° 0 mm 2 mps 760 mmHg 53%
02:00 +19°C° 0 mm 3 mps 760 mmHg 51%
03:00 +18°C° 0 mm 3 mps 760 mmHg 48%
04:00 +18°C° 0 mm 3 mps 760 mmHg 44%
05:00 +17°C° 0 mm 3 mps 760 mmHg 40%
06:00 +17°C° 0 mm 3 mps 760 mmHg 35%
07:00 +18°C° 0 mm 3 mps 761 mmHg 32%
08:00 +20°C° 0 mm 3 mps 762 mmHg 29%
09:00 +22°C° 0 mm 3 mps 762 mmHg 26%
10:00 +25°C° 0 mm 3 mps 762 mmHg 24%
11:00 +27°C° 0 mm 3 mps 762 mmHg 22%
12:00 +29°C° 0 mm 3 mps 761 mmHg 20%
13:00 +29°C° 0 mm 3 mps 761 mmHg 20%
14:00 +30°C° 0 mm 3 mps 760 mmHg 21%
15:00 +31°C° 0 mm 2 mps 759 mmHg 22%
16:00 +29°C° 0 mm 2 mps 759 mmHg 24%
17:00 +28°C° 0 mm 2 mps 759 mmHg 25%
18:00 +26°C° 0 mm 2 mps 759 mmHg 27%
19:00 +25°C° 0 mm 2 mps 760 mmHg 29%
20:00 +24°C° 0 mm 2 mps 760 mmHg 30%
21:00 +21°C° 0 mm 2 mps 761 mmHg 31%
22:00 +21°C° 0 mm 2 mps 761 mmHg 32%
23:00 +20°C° 0 mm 2 mps 761 mmHg 32%

1 February, Monday

Time Temperature Precipitation Wind Pressure Humidity
00:00 +19°C° 0 mm 2 mps 761 mmHg 33%
01:00 +18°C° 0 mm 2 mps 761 mmHg 34%
02:00 +17°C° 0 mm 2 mps 761 mmHg 36%
03:00 +16°C° 0 mm 2 mps 761 mmHg 37%
04:00 +16°C° 0 mm 2 mps 761 mmHg 37%
05:00 +15°C° 0 mm 2 mps 761 mmHg 37%
06:00 +14°C° 0 mm 2 mps 761 mmHg 37%
07:00 +17°C° 0 mm 2 mps 762 mmHg 33%
08:00 +19°C° 0 mm 2 mps 762 mmHg 29%
09:00 +21°C° 0 mm 2 mps 763 mmHg 25%
10:00 +24°C° 0 mm 2 mps 763 mmHg 22%
11:00 +26°C° 0 mm 2 mps 762 mmHg 19%
12:00 +29°C° 0 mm 2 mps 762 mmHg 17%
13:00 +30°C° 0 mm 2 mps 761 mmHg 17%
14:00 +30°C° 0 mm 2 mps 760 mmHg 16%
15:00 +31°C° 0 mm 3 mps 760 mmHg 16%
16:00 +29°C° 0 mm 2 mps 760 mmHg 19%
17:00 +27°C° 0 mm 2 mps 760 mmHg 21%
18:00 +26°C° 0 mm 2 mps 759 mmHg 23%
19:00 +24°C° 0 mm 2 mps 760 mmHg 26%
20:00 +23°C° 0 mm 1 mps 760 mmHg 29%
21:00 +21°C° 0 mm 1 mps 761 mmHg 32%
22:00 +20°C° 0 mm 1 mps 761 mmHg 35%
23:00 +20°C° 0 mm 1 mps 761 mmHg 37%
Show more

We Need Your Consent

Meteoprog and our Service Providers may store and access personal data such as cookies, device identifiers or other similar technologies on your device and process such data to personalise content and ads, as well as provide social media features and to analyse the traffic.

  • Store and/or access information on your device

    Cookies, device identifiers or other information can be stored or accessed on your device for the purposes indicated above.

  • Personalised ads and content, ad and content measurement, audience insights, and products development

    Ads and content can be personalised based on a profile. More data can be added to better personalise ads and content. Ad and content performance can be measured. Insights about the audience who saw the ads and content can be derived. Such data can be used to develop or improve user’s experience, systems and software.

By clicking ‘I Agree’ you will allow the use of indicated cookies, device identifiers, web beacons or other similar technologies. Your settings can be changed in the browser on your device.

For certain purposes, legitimate interests may be relied on, rather than consent. You can read more about this in our Privacy and Cookie Policy.